DW3426 Tranby NO current weather conditions

sailwx.info

Wind from 360 at 3 knots

Air temperature 2.2° C
Dewpoint 1.1° C

Last reported at 2019-Dec-11 15:47 UTC.
Time now 2019-Dec-11 17:14 UTC

Location: N 59°49' E 010°16'.
View on Google Maps.

See reports from other nearby stations

  
Tides and Currents Weather Stations Pressure Air Temp Water Temp Dewpoint Dewpoint Depression Visibility Wind Speed Wind Dir Waves Ship Positions
date/time (UTC)wind fromknots sea level pressurealtimeterstation pressurevisibilityair tempwater tempwave heightnotes
2019-Dec-11 15:47 360 3 2.2
2019-Dec-11 15:32 044 3 2.2
2019-Dec-11 15:16 026 4 2.2
2019-Dec-11 15:02 336 4 2.2
2019-Dec-11 14:48 312 5 2.2
2019-Dec-11 14:33 355 5 2.2
2019-Dec-11 14:17 332 4 2.2
2019-Dec-11 14:02 315 4 2.8
2019-Dec-11 13:47 076 4 2.8
2019-Dec-11 13:32 017 2 2.8
2019-Dec-11 13:17 049 4 2.8
2019-Dec-11 13:02 063 5 3.3
2019-Dec-11 12:47 350 6 2.8
2019-Dec-11 12:31 011 5 2.8
2019-Dec-11 12:16 019 6 2.8
2019-Dec-11 12:02 347 0 2.8
2019-Dec-11 11:46 360 2 2.8
2019-Dec-11 11:31 360 3 2.8
2019-Dec-11 11:18 350 5 2.2
2019-Dec-11 11:01 335 6 2.2
2019-Dec-11 10:47 330 6 2.2
2019-Dec-11 10:31 323 5 2.2
2019-Dec-11 10:18 326 6 2.2
2019-Dec-11 10:02 314 6 2.2
2019-Dec-11 09:46 307 6 2.2
2019-Dec-11 09:31 346 5 2.2
2019-Dec-11 09:16 314 6 2.2
2019-Dec-11 09:02 325 5 2.2
2019-Dec-11 08:47 350 4 2.2
2019-Dec-11 08:32 332 3 2.2
2019-Dec-11 08:16 343 4 2.2
2019-Dec-11 08:01 323 2 2.2
2019-Dec-11 07:46 051 1 2.8
2019-Dec-11 07:30 052 1 2.8
2019-Dec-11 07:16 053 0 3.3
2019-Dec-11 07:02 053 0 3.9
2019-Dec-11 06:48 053 2 3.9
2019-Dec-11 06:31 067 5 3.9
2019-Dec-11 06:15 081 9 4.4
2019-Dec-11 06:01 067 8 3.9
2019-Dec-11 05:47 059 5 3.9
2019-Dec-11 05:32 069 3 3.9
2019-Dec-11 05:15 046 3 3.9
2019-Dec-11 05:02 059 2 3.9
2019-Dec-11 04:46 039 5 3.9
2019-Dec-11 04:31 011 5 3.9
2019-Dec-11 04:16 005 5 3.9
2019-Dec-11 04:02 014 6 3.9
2019-Dec-11 03:46 342 6 3.9
2019-Dec-11 03:31 057 6 3.9
2019-Dec-11 03:16 342 7 3.9
2019-Dec-11 03:00 320 8 3.3
2019-Dec-11 02:30 346 9 3.3
2019-Dec-11 02:15 290 11 2.8
2019-Dec-11 02:00 303 12 2.8
2019-Dec-11 01:49 294 12 2.2
2019-Dec-11 01:34 330 11 2.2
2019-Dec-11 01:19 343 12 2.2
2019-Dec-11 01:02 341 11 2.2
2019-Dec-11 00:47 348 11 1.7
2019-Dec-11 00:33 296 11 1.7
2019-Dec-11 00:16 342 13 1.7
2019-Dec-11 00:01 337 12 1.7
2019-Dec-10 23:47 355 11 1.7
2019-Dec-10 23:31 315 9 1.7
2019-Dec-10 23:17 355 10 1.7
2019-Dec-10 23:01 327 11 1.7
2019-Dec-10 22:46 307 10 1.1
2019-Dec-10 22:31 296 13 1.1
2019-Dec-10 22:15 345 11 1.1
2019-Dec-10 22:01 317 12 1.1
2019-Dec-10 21:46 294 10 1.1
2019-Dec-10 21:30 032 11 1.7
2019-Dec-10 21:16 355 12 1.7
2019-Dec-10 21:00 360 12 1.7
2019-Dec-10 20:45 344 11 1.7
2019-Dec-10 20:30 038 12 1.7
2019-Dec-10 20:16 015 11 1.7
2019-Dec-10 20:00 344 9 1.7
2019-Dec-10 19:45 332 12 1.7
2019-Dec-10 19:15 340 11 1.7
2019-Dec-10 19:00 341 9 1.7
2019-Dec-10 18:50 305 8 1.1
2019-Dec-10 18:33 339 10 1.1
2019-Dec-10 18:17 320 9 0.6
2019-Dec-10 18:04 338 8 0.6
2019-Dec-10 17:47 346 7 -0.0
2019-Dec-10 17:33 344 6 -0.6
2019-Dec-10 17:17 339 5 -1.7
2019-Dec-10 17:02 337 2 -2.2
2019-Dec-10 16:47 334 2 -2.2
2019-Dec-10 16:32 329 4 -2.8
2019-Dec-10 16:15 325 5 -2.8
2019-Dec-10 16:02 331 3 -2.8
2019-Dec-10 15:45 334 3 -2.8
2019-Dec-10 15:30 322 4 -3.3
2019-Dec-10 15:16 328 5 -3.3
2019-Dec-10 15:01 313 5 -3.9
2019-Dec-10 14:46 318 4 -3.9
2019-Dec-10 14:31 317 4 -3.9
2019-Dec-10 14:16 314 5 -3.9
2019-Dec-10 14:00 314 4 -3.9
2019-Dec-10 13:46 313 3 -3.9
2019-Dec-10 13:31 310 4 -3.9
2019-Dec-10 13:16 318 3 -3.9
2019-Dec-10 13:00 319 3 -3.9
2019-Dec-10 12:45 319 3 -3.3
2019-Dec-10 12:30 240 1 -3.3
2019-Dec-10 12:15 240 1 -3.9
2019-Dec-10 12:01 240 2 -3.9
2019-Dec-10 11:45 240 3 -3.9
2019-Dec-10 11:31 238 2 -3.9
2019-Dec-10 11:15 238 1 -3.9
2019-Dec-10 11:00 238 0 -3.9
2019-Dec-10 10:45 238 0 -4.4
2019-Dec-10 10:30 238 1 -4.4
2019-Dec-10 10:15 238 0 -5.0
2019-Dec-10 10:00 238 -5.6
2019-Dec-10 09:45 238 2 -5.6
2019-Dec-10 09:15 237 0 -6.1
2019-Dec-10 09:00 237 0 -6.1
2019-Dec-10 08:45 237 1 -6.1
2019-Dec-10 08:30 237 -6.1
2019-Dec-10 08:15 237 -6.1
2019-Dec-10 08:00 237 1 -6.1
2019-Dec-10 07:31 237 1 -5.6
2019-Dec-10 07:17 237 0 -5.0
2019-Dec-10 07:02 236 2 -5.0
2019-Dec-10 06:46 236 -4.4
2019-Dec-10 06:32 236 -3.9
2019-Dec-10 06:16 236 2 -3.9
2019-Dec-10 06:01 246 3 -3.9
2019-Dec-10 05:46 219 0 -3.9
2019-Dec-10 05:32 217 1 -4.4
2019-Dec-10 05:17 217 3 -5.0
2019-Dec-10 05:01 168 0 -4.4
2019-Dec-10 04:46 167 -3.9
2019-Dec-10 04:30 167 1 -3.3
2019-Dec-10 04:16 167 1 -2.8
2019-Dec-10 04:01 167 3 -2.8
2019-Dec-10 03:46 168 3 -2.8
2019-Dec-10 03:31 173 2 -2.8
2019-Dec-10 03:15 176 0 -2.8
2019-Dec-10 03:01 180 0 -2.8
2019-Dec-10 02:45 254 0 -2.8
2019-Dec-10 02:31 254 3 -2.8
2019-Dec-10 02:16 244 3 -2.2
2019-Dec-10 02:01 243 1 -2.2
2019-Dec-10 01:45 243 1 -2.2
2019-Dec-10 01:30 248 1 -2.2
2019-Dec-10 01:15 248 1 -2.2
2019-Dec-10 01:00 247 3 -2.2
2019-Dec-10 00:45 242 2 -2.8
2019-Dec-10 00:15 240 1 -2.2
2019-Dec-10 00:00 237 4 -2.2
2019-Dec-09 23:45 200 1 -2.2
2019-Dec-09 23:31 251 3 -2.8
2019-Dec-09 23:17 247 3 -2.8
2019-Dec-09 23:01 246 2 -2.2
2019-Dec-09 22:46 252 5 -1.7
2019-Dec-09 22:31 281 3 -2.2
2019-Dec-09 22:17 277 5 -2.2
2019-Dec-09 22:01 215 2 -2.2
2019-Dec-09 21:46 186 2 -1.7
2019-Dec-09 21:30 255 3 -1.7
2019-Dec-09 21:15 265 3 -1.7
2019-Dec-09 21:00 274 3 -1.7
2019-Dec-09 20:46 265 5 -1.7
2019-Dec-09 20:30 316 3 -1.7
2019-Dec-09 20:15 161 4 -1.1
2019-Dec-09 20:00 331 4 -1.1
2019-Dec-09 19:45 167 4 -1.1
2019-Dec-09 19:30 169 5 -1.1
2019-Dec-09 19:15 159 6 -1.1
2019-Dec-09 19:00 091 5 -1.1
2019-Dec-09 18:45 163 5 -1.1
2019-Dec-09 18:32 285 3 -1.1
2019-Dec-09 18:16 153 5 -0.6
2019-Dec-09 18:02 163 6 -0.6
2019-Dec-09 17:47 261 5 -0.6
2019-Dec-09 17:16 288 5 -0.6
2019-Dec-09 17:01 155 5 -0.6